Roseburg, OR

2:59 AM PDT on July 25, 2017 (GMT -0700)
Roseburg Regional

Weather History for KRBG - April, 2013

Change the Weather History Date:

Friday, April 12, 2013

  Actual Average Record
Temperature  
Mean Temperature 51 °F 51 °F  
Max Temperature 66 °F 61 °F 87 °F (1943)
Min Temperature 35 °F 41 °F 32 °F (2011)
Degree Days  
Heating Degree Days 14 14  
Month to date heating degree days 130 173  
Since 1 July heating degree days 3274 3552  
Cooling Degree Days 0 0  
Month to date cooling degree days 0 0  
Year to date cooling degree days 0 0  
Moisture  
Dew Point 37 °F    
Average Humidity 62    
Maximum Humidity 92    
Minimum Humidity 31    
Precipitation  
Precipitation 0.00 in 0.10 in 0.98 in (1963)
Month to date precipitation 1.08 1.27  
Year to date precipitation 5.91 13.81  
Sea Level Pressure  
Sea Level Pressure 30.03 in    
Wind  
Wind Speed 3 mph (West)    
Max Wind Speed 13 mph    
Max Gust Speed 16 mph    
Visibility 10 miles    
Events      
T = Trace of Precipitation, MM = Missing Value Source: NWS Daily Summary

Daily Weather History Graph

Daily Weather History Graph

Search for Another Location

Airport or City:

Trip Planner

Search our weather history database for the weather conditions in past years. The results will help you decide how hot, cold, wet, or windy it might be!

Date:

Astronomy

Apr. 12, 2013 Rise Set
Actual Time 6:35 AM PDT 7:53 PM PDT
Civil Twilight 6:06 AM PDT 8:22 PM PDT
Nautical Twilight 5:30 AM PDT 8:58 PM PDT
Astronomical Twilight 4:53 AM PDT 9:35 PM PDT
Moon 7:45 AM PDT (4/12) 10:33 PM PDT (4/12)
Length of Visible Light 14h 16m
Length of Day
13h 17m
Waxing Crescent, 6% of the Moon is Illuminated
Apr 12
Waxing Crescent
Apr 18
First Quarter
Apr 25
Full
May 2
Last Quarter
May 9
New

Hourly Weather History & Observations

Time (PDT) Temp. Dew Point Humidity Pressure Visibility Wind Dir Wind Speed Gust Speed Precip Events Conditions
12:53 AM 43.0 °F 37.0 °F 80% 30.14 in 10.0 mi Calm Calm - N/A   Clear
1:53 AM 39.9 °F 35.1 °F 83% 30.13 in 10.0 mi Calm Calm - N/A   Clear
2:53 AM 39.9 °F 36.0 °F 86% 30.13 in 10.0 mi Calm Calm - N/A   Clear
3:53 AM 39.0 °F 36.0 °F 89% 30.12 in 10.0 mi Calm Calm - N/A   Clear
4:53 AM 37.9 °F 35.1 °F 89% 30.13 in 10.0 mi Calm Calm - N/A   Clear
5:53 AM 37.0 °F 34.0 °F 89% 30.12 in 10.0 mi Calm Calm - N/A   Clear
6:53 AM 35.1 °F 34.0 °F 96% 30.10 in 10.0 mi Calm Calm - N/A   Clear
7:53 AM 39.0 °F 36.0 °F 89% 30.09 in 10.0 mi Calm Calm - N/A   Scattered Clouds
8:11 AM 39.2 °F 37.4 °F 93% 30.09 in 10.0 mi Calm Calm - N/A   Mostly Cloudy
8:53 AM 42.1 °F 37.9 °F 85% 30.08 in 10.0 mi Calm Calm - N/A   Scattered Clouds
9:53 AM 46.9 °F 39.0 °F 74% 30.06 in 10.0 mi North 3.5 mph - N/A   Clear
10:53 AM 52.0 °F 39.9 °F 63% 30.04 in 10.0 mi Calm Calm - N/A   Clear
11:53 AM 55.0 °F 41.0 °F 59% 30.00 in 10.0 mi Calm Calm - N/A   Clear
12:53 PM 59.0 °F 41.0 °F 51% 29.98 in 10.0 mi SSE 3.5 mph - N/A   Partly Cloudy
1:53 PM 64.0 °F 41.0 °F 43% 29.97 in 10.0 mi NE 6.9 mph - N/A   Mostly Cloudy
2:53 PM 64.9 °F 42.1 °F 43% 29.96 in 10.0 mi NNE 6.9 mph - N/A   Partly Cloudy
3:53 PM 66.0 °F 39.0 °F 37% 29.93 in 10.0 mi Variable 4.6 mph - N/A   Overcast
4:53 PM 64.0 °F 33.1 °F 31% 29.93 in 10.0 mi WSW 5.8 mph - N/A   Overcast
5:53 PM 61.0 °F 33.1 °F 35% 29.93 in 10.0 mi NW 6.9 mph - N/A   Overcast
6:53 PM 60.1 °F 33.1 °F 36% 29.94 in 10.0 mi West 5.8 mph - N/A   Overcast
7:53 PM 57.0 °F 28.9 °F 34% 29.95 in 10.0 mi WSW 9.2 mph - N/A   Overcast
8:53 PM 55.0 °F 30.0 °F 38% 29.99 in 10.0 mi SW 5.8 mph - N/A   Overcast
9:53 PM 54.0 °F 39.0 °F 57% 30.00 in 10.0 mi WSW 4.6 mph - N/A   Overcast
10:53 PM 53.1 °F 41.0 °F 64% 30.00 in 10.0 mi SW 4.6 mph - N/A   Overcast
11:53 PM 52.0 °F 42.1 °F 69% 30.00 in 10.0 mi Calm Calm - N/A   Overcast